Wind_Speed
6 6 7 7 6 8 9 10 11 10 8 8 8 7 6 6 6 5 5 4 4 3 2 2 1 1 2 1 1 2 2 2 2 4 4 4 4 3 3 3 4 3 4 4 4
5 5 6 6 6 8 9 11 11 10 8 8 8 7 6 6 5 4 4 3 3 2 2 2 1 1 1 1 1 1 3 2 2 2 3 3 3 3 3 3 3 3 4 4 3
4 4 5 6 6 7 9 11 11 10 8 8 8 7 6 5 4 3 2 2 1 2 2 3 2 2 2 3 3 2 1 1 1 1 2 3 4 4 4 3 4 3 4 3 2
4 4 4 5 6 7 8 10 11 10 8 8 8 7 6 6 2 3 1 1 2 2 2 3 3 2 2 3 3 3 2 1 0 2 3 4 5 6 6 4 4 4 3 2 2
5 4 4 4 5 7 8 8 9 9 9 9 8 7 6 5 4 2 2 1 1 2 2 3 4 3 2 3 3 4 3 2 1 2 3 4 6 7 6 5 4 4 2 3 4
7 7 6 5 5 5 7 8 9 9 9 9 8 7 7 5 4 2 2 2 1 2 2 2 3 4 2 3 3 3 4 2 2 3 4 6 6 5 5 4 4 4 3 5 5
8 8 8 7 6 6 6 8 10 10 9 9 8 8 7 5 4 3 2 2 2 2 3 3 4 4 3 2 3 2 3 3 3 7 7 9 5 5 6 4 4 4 4 6 7
9 8 8 7 6 6 6 8 9 10 10 9 9 8 7 6 5 4 3 2 2 2 2 4 5 4 3 2 2 3 2 6 7 6 9 9 6 8 6 7 6 5 5 7 8
11 10 8 8 7 6 6 7 8 9 9 9 9 8 7 7 6 5 5 3 2 2 2 3 4 3 4 3 3 4 7 8 9 11 10 11 9 9 11 10 8 6 7 10 10
13 12 10 9 8 7 7 7 8 9 9 8 8 7 6 7 8 6 5 4 2 2 2 2 3 3 3 4 4 9 11 12 11 13 14 15 5 10 12 11 10 8 8 11 11
14 14 12 11 10 8 8 8 8 8 9 9 6 8 6 7 7 7 6 5 3 2 3 3 4 4 5 6 8 10 11 14 15 12 19 18 14 11 18 11 10 7 8 11 11
13 14 14 13 11 10 8 8 9 5 9 8 7 8 7 7 7 7 7 6 5 3 2 3 5 5 5 7 8 9 13 14 9 16 21 19 17 6 6 5 9 9 7 8 13
13 14 15 14 12 11 10 9 8 7 6 9 9 9 8 7 7 8 7 6 5 4 4 5 6 7 8 8 7 11 13 13 16 18 19 17 8 2 7 4 6 4 5 5 7
13 14 15 15 13 12 11 10 8 7 4 6 11 11 11 9 8 10 9 8 6 5 4 4 3 4 5 7 10 13 11 14 17 18 10 17 8 10 4 3 6 6 4 5 4
13 13 16 16 13 12 11 9 8 6 2 6 12 9 10 13 5 10 10 10 9 8 6 5 6 7 9 9 10 11 13 17 18 17 14 7 6 3 6 3 5 7 6 6 7
13 14 16 16 15 14 12 11 9 5 6 9 12 9 12 12 9 5 7 8 7 8 8 9 10 10 7 9 10 11 13 17 12 8 2 3 6 5 2 1 2 4 6 6 6
14 15 16 17 17 16 15 13 7 6 4 8 11 10 10 10 11 9 7 7 6 3 4 5 7 7 7 7 6 6 10 5 3 3 2 4 12 7 9 9 7 9 8 6 4
15 15 17 19 19 17 17 16 9 5 7 7 10 11 10 9 9 9 8 8 8 8 6 4 3 3 2 3 4 6 4 2 2 2 7 20 8 2 5 10 10 8 8 7 4
17 18 18 19 21 20 20 19 5 7 8 7 11 12 12 11 7 7 9 10 8 8 6 3 3 4 5 5 5 3 4 3 4 6 4 5 7 11 8 3 2 3 7 8 5
20 19 19 21 22 23 23 22 14 8 6 10 11 10 8 10 10 6 5 3 7 10 9 5 5 8 8 8 8 9 6 3 2 1 4 6 9 13 9 7 3 6 4 5 15
22 22 22 23 24 25 29 26 22 14 9 9 13 10 9 7 11 6 4 3 5 4 8 8 7 5 6 5 6 7 7 5 3 4 2 4 6 6 7 10 8 6 10 14 31
25 25 23 25 27 30 32 28 21 15 17 13 13 13 12 10 9 10 10 8 4 7 7 8 7 8 10 13 13 13 13 11 5 5 8 8 18 8 17 18 17 19 19 34 40
26 27 23 26 31 31 29 27 24 21 18 16 16 15 15 14 8 11 11 12 13 11 6 7 7 4 4 5 7 10 9 9 15 18 21 7 14 5 11 18 23 25 37 44 40
27 25 29 27 31 30 30 28 24 23 24 20 20 20 19 18 17 11 10 8 10 15 16 17 19 20 18 14 19 27 27 23 23 21 25 39 44 40 38 39 36 38 37 33 31
32 30 28 21 32 29 28 23 25 28 24 22 26 26 22 20 20 23 21 21 18 16 16 19 25 26 29 26 26 28 33 33 37 40 36 48 46 38 34 36 32 32 28 28 25
34 34 30 30 22 25 31 28 27 19 24 26 26 22 19 24 24 20 11 14 19 18 19 23 26 29 32 29 29 33 36 40 43 46 49 46 46 27 26 25 21 22 25 27 24
37 35 33 29 31 28 23 18 25 25 24 23 19 20 21 18 15 18 21 22 22 20 17 20 24 20 20 23 18 24 26 18 23 24 30 34 33 30 24 24 28 30 27 27 24
Wind_Direction
139 141 141 143 148 158 163 165 165 165 164 159 152 150 147 142 137 133 110 103 95 93 74 55 30 346 7 315 246 238 188 179 227 214 212 273 282 290 292 309 329 333 334 324 318
144 154 153 146 146 154 162 164 168 167 168 164 159 159 157 156 152 130 103 94 95 103 86 39 188 101 22 107 117 167 181 214 203 210 253 282 287 288 298 314 330 330 321 314 288
123 148 163 160 154 153 162 169 173 172 172 170 166 166 165 166 163 142 107 78 62 70 70 43 46 51 69 73 74 97 138 233 268 312 316 306 304 313 308 313 322 309 309 302 264
135 132 147 167 170 162 162 171 177 179 179 176 172 173 170 162 144 164 127 32 344 1 43 35 25 54 50 53 61 77 74 91 11 328 317 312 310 308 305 303 304 302 298 262 223
185 168 151 152 171 178 172 171 179 184 184 181 176 176 176 180 181 182 199 232 329 333 353 12 17 23 30 41 46 44 56 83 57 342 329 317 306 296 295 304 308 308 279 213 203
201 201 191 179 172 178 184 183 183 182 182 185 183 183 188 198 211 250 234 229 276 296 316 351 15 11 18 40 48 56 38 90 20 349 331 322 306 291 307 311 319 309 249 209 207
199 197 199 195 189 185 186 188 192 192 189 189 190 195 200 204 214 214 216 238 276 288 309 344 1 3 5 42 61 56 25 0 324 333 330 328 318 301 307 311 314 302 247 215 215
204 201 196 191 187 186 183 186 195 197 197 197 196 205 215 218 218 221 214 218 244 277 324 349 354 352 5 4 6 338 330 342 326 324 324 323 322 312 300 308 299 282 245 224 219
207 204 200 195 189 185 182 182 186 194 198 202 202 208 216 220 217 213 208 220 240 273 317 350 353 2 1 353 338 343 334 334 335 322 313 309 311 301 296 293 286 272 238 224 222
205 205 201 197 195 186 182 179 180 185 193 197 203 204 216 205 209 206 205 216 229 271 303 348 360 351 347 342 342 334 337 335 335 319 319 313 328 292 295 282 270 266 249 228 222
205 203 202 198 195 192 185 178 177 185 187 189 198 207 201 194 203 202 206 214 232 273 308 309 333 324 336 333 331 331 332 331 333 334 328 322 322 300 270 262 249 247 238 226 222
207 204 204 201 197 194 188 178 172 183 193 199 199 196 185 200 200 208 212 220 230 245 277 297 306 308 315 322 325 331 331 330 331 333 325 322 328 336 289 226 228 235 242 232 232
207 204 204 203 201 196 190 183 182 177 186 206 205 203 203 204 202 211 216 226 238 254 276 290 287 293 298 302 310 321 325 328 326 329 326 332 326 292 329 248 222 223 236 249 247
207 201 202 204 202 200 196 190 188 192 226 219 209 211 212 209 222 222 221 226 236 248 273 282 293 307 314 310 309 315 317 317 318 322 320 328 295 305 317 249 217 227 232 251 257
210 205 203 203 201 200 198 196 192 197 276 193 200 202 199 201 204 213 222 230 238 252 258 270 280 295 304 309 316 312 317 315 311 309 312 326 301 285 305 271 234 234 247 257 266
205 204 203 201 197 199 196 193 194 203 250 193 189 200 198 203 210 197 207 223 240 255 260 267 275 284 289 302 310 315 320 313 308 317 321 359 346 288 330 358 296 242 252 262 274
209 203 203 201 199 199 195 193 191 228 204 197 195 196 192 201 211 219 222 224 227 241 255 272 268 273 280 292 310 331 336 322 341 357 244 306 313 264 284 299 286 275 253 256 268
209 207 204 203 200 199 197 193 217 223 199 196 191 193 197 203 211 220 235 241 240 237 260 259 264 231 231 285 299 321 359 23 283 290 292 291 249 289 290 297 292 274 234 230 201
211 208 207 206 203 203 201 201 222 223 217 204 192 199 206 209 211 225 246 247 241 230 220 224 247 229 241 264 280 284 294 287 255 276 296 262 280 297 285 300 343 281 250 239 247
211 211 207 209 207 205 209 214 217 215 204 200 197 200 208 219 212 219 242 258 236 230 229 254 268 261 262 261 261 251 269 300 264 305 293 276 275 265 265 269 274 342 252 241 299
209 211 210 209 208 210 218 221 221 224 222 209 214 218 216 218 224 226 241 264 244 246 230 246 251 265 257 264 273 264 264 264 269 261 251 302 260 275 268 266 269 300 234 284 309
207 211 212 212 210 218 224 225 229 231 232 227 230 228 233 224 224 228 240 244 247 241 250 255 273 265 271 274 270 272 264 259 230 253 230 268 286 292 256 266 279 278 270 302 308
213 213 210 214 217 224 230 229 230 234 231 235 232 234 236 233 235 247 248 245 243 243 244 246 249 287 292 290 282 271 283 273 268 260 259 237 265 281 292 287 293 288 293 300 302
216 216 217 215 222 225 230 235 230 236 237 237 241 238 239 239 242 249 249 251 242 245 249 259 258 258 255 273 286 290 293 288 276 257 261 262 287 295 296 295 298 298 299 297 289
219 219 221 224 226 226 230 232 234 236 236 238 244 243 244 250 251 250 256 261 261 254 247 249 262 269 276 276 279 286 286 286 278 279 264 286 283 310 314 306 300 296 295 288 290
223 221 225 227 228 227 231 231 235 236 237 240 246 254 255 253 257 263 260 264 264 263 260 259 263 271 278 282 282 282 283 281 280 280 279 284 289 331 315 302 298 292 285 284 290
230 231 230 232 233 233 233 235 241 243 246 244 244 248 249 257 256 251 251 253 255 260 261 259 264 273 280 290 288 282 303 292 289 304 304 288 316 323 310 296 292 291 295 292 286
Height
3181 3182 3183 3184 3185 3186 3187 3189 3190 3192 3193 3194 3195 3196 3197 3198 3199 3199 3199 3199 3199 3199 3199 3199 3199 3199 3199 3199 3199 3199 3201 3201 3201 3202 3203 3203 3202 3201 3201 3201 3200 3201 3200 3200 3199
3181 3182 3183 3184 3185 3186 3187 3189 3191 3192 3194 3195 3196 3197 3198 3198 3199 3200 3200 3199 3199 3200 3200 3200 3199 3199 3199 3199 3199 3199 3200 3200 3201 3201 3201 3201 3200 3200 3200 3199 3199 3199 3199 3198 3198
3181 3181 3183 3184 3185 3186 3187 3189 3191 3193 3194 3195 3197 3197 3198 3199 3200 3200 3200 3200 3200 3200 3200 3200 3199 3199 3198 3198 3198 3198 3199 3199 3200 3200 3200 3200 3199 3198 3198 3199 3198 3198 3197 3197 3196
3181 3182 3183 3184 3185 3186 3188 3189 3191 3192 3194 3195 3197 3198 3198 3199 3202 3200 3201 3201 3201 3201 3200 3200 3200 3199 3199 3199 3198 3199 3199 3199 3200 3200 3199 3198 3198 3198 3197 3198 3197 3196 3195 3195 3195
3181 3182 3183 3184 3185 3186 3187 3189 3190 3192 3193 3195 3197 3198 3199 3200 3200 3200 3200 3200 3201 3201 3201 3201 3201 3200 3200 3200 3199 3199 3199 3200 3199 3199 3198 3198 3197 3196 3196 3196 3195 3195 3194 3193 3193
3180 3181 3182 3183 3184 3185 3187 3188 3190 3191 3193 3194 3196 3197 3199 3200 3200 3200 3200 3201 3201 3201 3201 3201 3200 3200 3200 3200 3200 3200 3199 3199 3199 3199 3198 3197 3195 3194 3195 3194 3194 3193 3192 3192 3192
3179 3180 3181 3182 3183 3184 3186 3187 3189 3190 3192 3194 3195 3197 3198 3200 3199 3200 3200 3201 3201 3202 3202 3202 3201 3201 3200 3200 3200 3200 3200 3199 3198 3198 3197 3195 3194 3193 3192 3192 3192 3191 3191 3191 3191
3177 3178 3180 3182 3183 3184 3185 3186 3188 3190 3192 3193 3194 3196 3197 3198 3198 3199 3200 3200 3201 3201 3202 3201 3201 3201 3200 3201 3200 3200 3200 3199 3198 3197 3196 3196 3194 3192 3191 3191 3190 3190 3190 3190 3190
3176 3178 3179 3181 3182 3183 3184 3186 3187 3189 3191 3192 3194 3195 3197 3197 3198 3199 3200 3200 3201 3201 3201 3201 3201 3201 3201 3200 3201 3200 3199 3198 3198 3196 3195 3194 3191 3190 3189 3189 3189 3188 3188 3188 3188
3175 3177 3178 3180 3181 3183 3184 3185 3186 3188 3190 3191 3193 3197 3196 3197 3197 3198 3199 3200 3201 3201 3201 3202 3201 3201 3200 3200 3200 3199 3198 3197 3196 3196 3192 3190 3189 3188 3187 3186 3186 3187 3186 3186 3186
3172 3174 3177 3179 3181 3182 3183 3185 3188 3190 3189 3191 3192 3193 3194 3195 3196 3197 3199 3199 3200 3201 3201 3201 3202 3201 3201 3200 3199 3198 3196 3195 3194 3191 3189 3186 3184 3185 3182 3181 3181 3182 3182 3183 3184
3170 3173 3175 3177 3180 3182 3183 3184 3186 3188 3189 3189 3190 3192 3193 3194 3196 3197 3198 3200 3200 3200 3200 3202 3200 3200 3200 3199 3199 3197 3196 3194 3192 3190 3187 3184 3180 3178 3177 3178 3179 3180 3180 3181 3181
3168 3170 3173 3176 3179 3181 3182 3184 3185 3186 3188 3189 3189 3191 3192 3194 3194 3196 3197 3198 3199 3199 3199 3199 3200 3199 3198 3198 3197 3196 3195 3193 3192 3189 3186 3182 3178 3177 3176 3176 3177 3178 3179 3179 3179
3166 3168 3171 3174 3179 3179 3181 3183 3184 3185 3188 3189 3188 3190 3191 3191 3193 3194 3195 3198 3197 3198 3198 3198 3197 3197 3197 3197 3197 3195 3193 3192 3190 3188 3186 3184 3180 3175 3174 3174 3175 3176 3177 3177 3178
3164 3166 3169 3172 3175 3178 3181 3182 3184 3186 3187 3186 3185 3186 3187 3191 3191 3191 3193 3194 3195 3196 3198 3198 3196 3197 3197 3196 3195 3195 3192 3190 3188 3186 3185 3183 3182 3173 3173 3173 3173 3174 3175 3175 3175
3162 3164 3167 3170 3173 3177 3179 3181 3184 3187 3183 3182 3183 3184 3186 3188 3189 3190 3192 3193 3194 3194 3195 3195 3195 3195 3195 3194 3194 3192 3191 3188 3185 3184 3184 3183 3183 3173 3173 3173 3173 3173 3173 3173 3173
3159 3162 3165 3168 3172 3174 3177 3180 3184 3181 3181 3181 3181 3183 3185 3187 3188 3189 3190 3191 3192 3193 3193 3193 3193 3193 3193 3193 3192 3191 3190 3187 3186 3184 3184 3183 3181 3173 3172 3172 3172 3172 3172 3172 3171
3156 3159 3162 3165 3168 3171 3175 3179 3179 3176 3176 3177 3179 3182 3184 3186 3187 3187 3188 3189 3190 3191 3191 3191 3192 3191 3191 3192 3192 3190 3191 3190 3191 3189 3184 3180 3175 3171 3171 3170 3170 3170 3170 3170 3171
3154 3156 3159 3162 3166 3169 3173 3174 3172 3173 3175 3176 3178 3180 3182 3184 3186 3186 3186 3186 3187 3188 3191 3189 3189 3189 3189 3190 3191 3189 3189 3189 3188 3186 3185 3176 3172 3170 3168 3168 3168 3168 3168 3168 3168
3149 3153 3156 3159 3162 3166 3169 3169 3170 3171 3172 3174 3176 3178 3179 3181 3184 3184 3184 3184 3185 3186 3188 3188 3189 3187 3187 3188 3189 3189 3190 3189 3188 3188 3184 3173 3170 3166 3166 3167 3167 3167 3167 3167 3165
3144 3148 3152 3155 3159 3161 3161 3164 3167 3169 3171 3174 3174 3176 3177 3179 3180 3182 3183 3184 3184 3184 3185 3186 3188 3187 3187 3186 3186 3188 3188 3188 3190 3189 3187 3181 3169 3165 3165 3165 3165 3164 3162 3162 3160
3138 3142 3146 3150 3154 3153 3154 3159 3164 3166 3169 3171 3172 3173 3175 3177 3177 3179 3180 3182 3182 3183 3184 3185 3184 3184 3186 3185 3185 3185 3185 3186 3187 3186 3183 3180 3164 3161 3163 3163 3163 3162 3159 3156 3152
3134 3136 3139 3144 3145 3147 3151 3155 3159 3162 3165 3166 3169 3170 3172 3174 3177 3175 3176 3178 3180 3181 3181 3182 3182 3182 3182 3184 3182 3181 3182 3182 3182 3181 3175 3180 3160 3160 3160 3159 3158 3157 3154 3149 3144
3130 3132 3135 3136 3139 3143 3147 3150 3154 3156 3159 3162 3164 3166 3168 3170 3172 3172 3173 3175 3176 3177 3178 3179 3177 3179 3178 3180 3181 3179 3179 3180 3177 3174 3172 3160 3154 3153 3154 3153 3151 3148 3144 3139 3136
3122 3124 3128 3129 3134 3138 3142 3145 3148 3150 3154 3157 3158 3160 3164 3166 3167 3168 3171 3171 3173 3173 3174 3175 3172 3173 3172 3174 3174 3174 3171 3171 3167 3164 3165 3151 3151 3144 3145 3142 3139 3137 3135 3130 3130
3115 3119 3124 3127 3130 3133 3135 3139 3142 3146 3148 3151 3153 3157 3159 3160 3163 3165 3165 3167 3168 3168 3169 3170 3167 3165 3165 3168 3168 3165 3163 3159 3156 3153 3148 3146 3142 3140 3137 3135 3132 3129 3126 3123 3124
3109 3114 3119 3120 3124 3127 3130 3135 3138 3142 3144 3145 3149 3151 3153 3156 3158 3158 3159 3161 3162 3163 3164 3165 3163 3162 3158 3160 3159 3156 3151 3150 3148 3146 3142 3138 3134 3133 3132 3128 3124 3121 3119 3117 3117